HTV-7 (KOUNOTORI 7)

Last updated on Sun Nov 11 2018 00:02:07 GMT+0000 (Coordinated Universal Time)

1 43630U 18073A 18314.65238315 .00008446 00000-0 10157-3 0 9994 2 43630 51.6368 8.7198 0008180 267.4290 218.8982 15.61761615 7618
UTC large
Height (km)
Speed (km/s)
/
Latitude / Longitude
Inclination (degrees)
Orbital Period (minutes)
Azimuth
Elevation
Range (km)
Doppler Factor

Next 0 passes for location: London (51.5072 / 0.1276)

Sorry there are no passes over London.